Regional Weather Roundup
Issued by NWS

Home | Current Version | Previous Version | Text Only | Print | Product List | Glossary Off
Versions: 1 2 3 4 5 6 7 8 9 10 11 12 13 14 15 16 17 18 19 20 21 22 23 24 25 26 27 28 29 30 31 32 33 34 35 36 37 38 39 40 41 42 43 44 45 46 47 48 49 50

000
ASUS44 KMEG 221910
RWRTN
TENNESSEE HOURLY STATE WEATHER ROUNDUP
NATIONAL WEATHER SERVICE MEMPHIS TN
100 PM CST SAT NOV 22 2014

TNZ002-004-019-021-049-052-054-088>092-222000-
WEST TENNESSEE

CITY           SKY/WX    TMP DP  RH WIND       PRES   REMARKS
MEMPHIS INTL   PTSUNNY   65  39  38 S16       30.14F
NWS MEMPHIS      N/A     65 N/A N/A MISG        N/A
JACKSON        PTSUNNY   68  37  32 S9G16     30.15F
DYERSBURG      PTSUNNY   64  36  34 S10G17    30.15F
UNION CITY     SUNNY     64  39  39 S15       30.13F
PARIS          SUNNY     64  37  36 S12       30.16F
HUNTINGDON     SUNNY     65  33  30 S9        30.16F
LEXINGTON      MOSUNNY   66  34  30 S10       30.17F
SAVANNAH       PTSUNNY   64  36  34 S10       30.19F
$$

TNZ008-025-027-028-033-062-065-066-222000-
NORTH MIDDLE TENNESSEE

CITY           SKY/WX    TMP DP  RH WIND       PRES   REMARKS
NASHVILLE      PTSUNNY   63  33  32 SW16G25   30.23F
CLARKSVILLE    LGT RAIN  65  35  33 S14G24    30.17F
SMYRNA         MOSUNNY   66  33  29 S12G20    30.24F
COOKEVILLE     SUNNY     63  32  31 S8        30.25F
CROSSVILLE     SUNNY     57  28  33 SW13G21   30.28F
$$

TNZ061-075-076-078-094-096-097-222000-
SOUTH MIDDLE TENNESSEE

CITY           SKY/WX    TMP DP  RH WIND       PRES   REMARKS
FAYETTEVILLE   SUNNY     61  34  36 N18       30.24F
TULLAHOMA      SUNNY     63  30  29 S12       30.26F
WINCHESTER     SUNNY     63  36  36 S9        30.26F
MCMINNVILLE    MOSUNNY   63  32  31 S3        30.26F
COLUMBIA       MOSUNNY   64  36  34 S12       30.20F
SHELBYVILLE    SUNNY     64  34  32 S13       30.25F
$$

TNZ017-018-042-046-047-222000-
NORTHEAST TENNESSEE

CITY           SKY/WX    TMP DP  RH WIND       PRES   REMARKS
TRI CITIES     PTSUNNY   56  22  26 CALM      30.31F
ELIZABETHTON   CLEAR     59  19  21 CALM      30.30F
$$

TNZ012-013-036-069-073-074-222000-
CENTRAL EAST TENNESSEE

CITY           SKY/WX    TMP DP  RH WIND       PRES   REMARKS
KNOXVILLE      MOSUNNY   56  27  32 CALM      30.30F
OAK RIDGE      SUNNY     59  28  30 CALM      30.31F
GATLINBURG     CLEAR     54  23  30 CALM      30.30F
MORRISTOWN     CLEAR     55  25  30 CALM      30.31F
$$

TNZ083-085-099-222000-
SOUTHEAST TENNESSEE

CITY           SKY/WX    TMP DP  RH WIND       PRES   REMARKS
CHATTANOOGA    PTSUNNY   61  30  31 S15       30.31F
$$

SKY/WX REPORTED AS FAIR MEANS FEW OR NO CLOUDS BELOW
12 THOUSAND FEET.




USA.gov is the U.S. government's official web portal to all federal, state and local government web resources and services.